Location: Ravensburg
(48.5621°N, 13.4088°E)
Time: 14:36:20
(UTC+02:00)

ISS - Pass Details

Date: 21 March 2017
Orbit: 400 x 408 km, 51.6° (Epoch: 27 July)

Event Time Altitude Azimuth Distance (km) Brightness Sun altitude
Exits shadow 03:09:15 13° 94° (E) 1,316 -0.7 -28.3°
Drops below altitude 10° 03:09:43 10° 95° (E) 1,497 -0.4 -28.2°
Sets 03:11:50 0° 99° (E) 2,361 0.6 -27.9°
